Location: Angwan Shehu
(11.2514°N, 7.4613°E)
Time: 08:41:48
(UTC+00:00)

Okean-O - Pass Details

Date: 14 November 2019
Orbit: 639 x 641 km, 98.2° (Epoch: 06 December)

Event Time Altitude Azimuth Distance (km) Brightness Sun altitude
Rises 18:07:34 0° 185° (S) 2,936 6.3 -15.9°
Reaches altitude 10° 18:09:55 10° 194° (SSW) 2,027 5.6 -16.5°
Maximum altitude 18:13:56 34° 259° (W) 1,048 4.4 -17.4°
Drops below altitude 10° 18:17:57 10° 325° (NW) 2,026 5.4 -18.4°
Sets 18:20:18 0° 334° (NNW) 2,935 6.2 -18.9°
